LiveATC.Net - Listen to live air traffic control over the Internet!


ICAO: CYQT  IATA: YQT   Airport: Thunder Bay Airport
City: Thunder Bay   State/Province: Ontario
Country: Canada   Continent: North America
CYQT METAR Weather: CYQT 020100Z 26004KT 15SM OVC065 M13/M20 A2999 RMK SC8 SLP181
CYQT ADS-B Flight Tracking  (ADSBExchange)
CYQT Flight Activity (FlightAware)
CYQT Webcam:  (Airport Webcams) 

CYQT Ground/Tower
Feed Status: UP   Listeners: 0
Listen in your browser - HTML5 player (in browser, HTML5)
Click here to listen with your own player (launches your MP3 player)
Archive Access: CYQT Ground/Tower
FacilityFrequency
Thunder Bay Ground121.900
Thunder Bay Tower118.100

NOTICE

Unauthorized use prohibited. See LiveATC.net Terms of Service


Airport/ARTCC Code
Frequency Search
(e.g., 124.400, 128.75)
Site-wide search
 


Browse Feeds
Top 50 Feeds
HF Oceanic Feeds
Coverage Map
Bad Weather Areas

LiveATC FAQ
Offer LiveATC feed
Contact LiveATC.net
Press Inquiries

LiveATC on iPhone
LiveATC on Android

LiveATC Mobile
(Mobile browser)

ATC Audio Archives
Interesting Recordings

LiveATC Forums


Home Page
About LiveATC.net


Terms of Use
Privacy Policy

AIRMETs/SIGMETs

FAA Airport Status
NAS Status
Arrival Demand


Server Software By:
Icecast.org
Liquidsoap